Skip to main content Skip to accessibility
This website is not compatible with your web browser. You should install a newer browser. If you live in Jersey and need help upgrading call the States of Jersey web team on 440099.
Homegov.je

L'înformâtion et les sèrvices publyis pouor I'Île dé Jèrri

  • Choose the service you want to log in to:

  • gov.je

    Update your notification preferences

  • one.gov.je

    Access government and parish services

  • CAESAR

    Clear goods through customs or claim relief

  • Talentlink

    View or update your States of Jersey job application

Local METARs

METAR EGJJ 181350Z 17021G31KT 9999 FEW012 09/07 Q1004

METAR EGJB 181350Z 17020KT 9999 -RA FEW016 BKN038 10/08 Q1003

METAR EGJA 181350Z 17027G37KT 9999 RA FEW015 BKN044 09/07 Q1003

METAR LFRD 181400Z AUTO 17019KT 9999 -RADZ FEW044 SCT066 BKN078 09/06 Q1005 TEMPO 3000 RA BKN008 BECMG 16016G28KT

METAR LFRC 181400Z AUTO 16015KT 9999 -RA ///TCU 08/04 Q1005 BECMG 16018G30KT RA BKN015

 

 

 

​Times are in Greenwich Mean Time (GMT) and not British Summer Time (BST). They will be one hour different during BST.

Back to top
rating button